www.pogodaiklimat.ru

Погода и климат >> Архив погоды >> Австралия >> Bourke Airport Aws


ПОГОДА в Bourke Airport Aws

  • Прогноз погоды в Bourke Airport Aws
  • Монитор погоды в Bourke Airport Aws
  • Климат города

АРХИВ ПОГОДЫ в Bourke Airport Aws

Время (UTC), дата Ветер
(напр.,м/с)
 
Видим.   Явления Облачность Т
(С)
Тd
(С)
f
(%)
Тe
(С)
Тes
(С)
Комфортность P
(гПа)
Po
(гПа)
Тmin
(С)
Tmax
(С)
R
(мм)
R24
(мм)
S
(см)
14 17.06 ЮЗ 3 н/о н/о +9.0 +5.0 76 +7 +7 1024.0 1011.0 +21.3
13 17.06 Ю 2 н/о н/о +9.4 +3.6 67 +8 +8 1024.0 1011.0
15 17.06 Ю 3 н/о н/о +10.7 +5.5 70 +9 +9 1023.9 1010.9
16 17.06 ЮЗ 3 н/о н/о +9.9 +5.3 73 +8 +8 1023.9 1010.9
17 17.06 Ю 4 н/о н/о +9.8 +5.4 74 +7 +7 1024.0 1011.0
18 17.06 Ю 5 н/о н/о +9.7 +5.5 75 +7 +7 1023.6 1010.6
20 17.06 Ю 4 н/о н/о +8.2 +5.7 84 +5 +5 1024.6 1011.5
19 17.06 Ю 5 н/о н/о +9.3 +6.0 80 +6 +6 1023.8 1010.8
21 17.06 Ю 4 н/о н/о +8.3 +6.3 87 +5 +5 1025.3 1012.2
22 17.06 ЮЗ 3 н/о н/о +8.7 +6.7 87 +6 +6 1026.3 1013.2
23 17.06 Ю 5 н/о н/о +11.4 +7.1 75 +9 +9 1027.1 1014.0
00 18.06 Ю 7 н/о н/о +13.5 +7.1 65 +11 +11 1027.5 1014.4
02 18.06 Ю 6 н/о н/о +17.5 +4.5 42 +17 +17 1026.6 1013.5 +7.8
01 18.06 Ю 6 н/о н/о +15.4 +5.6 52 +14 +14 1027.2 1014.1
03 18.06 Ю 5 н/о н/о +18.5 +3.9 38 +18 +18 1025.8 1012.7
04 18.06 Ю 6 н/о н/о +19.2 +1.7 31 +19 +19 1025.1 1012.0
05 18.06 Ю 6 н/о н/о +19.4 +0.4 28 +19 +19 1024.7 1011.6
06 18.06 Ю 5 н/о н/о +19.4 +0.9 29 +19 +19 1024.8 1011.7
08 18.06 Ю 3 н/о н/о +15.7 +1.1 37 +16 +16 1025.5 1012.4
07 18.06 Ю 4 н/о н/о +18.7 +1.2 31 +19 +19 1025.1 1012.0
09 18.06 Ю 3 н/о н/о +13.3 +1.0 43 +13 +13 1026.1 1013.0
10 18.06 Ю 4 н/о н/о +13.5 +2.4 47 +12 +12 1026.7 1013.6
11 18.06 Ю 4 н/о н/о +13.6 +2.5 47 +12 +12 1027.0 1013.9
12 18.06 Ю 4 н/о н/о +12.3 +2.2 50 +11 +11 1027.2 1014.1
14 18.06 Ю 4 н/о н/о +11.5 +3.0 56 +10 +10 1027.2 1014.1 +20.1
13 18.06 Ю 4 н/о н/о +11.5 +2.5 54 +10 +10 1027.2 1014.1
15 18.06 Ю 5 н/о н/о +10.8 +3.4 60 +8 +8 1027.0 1013.9
16 18.06 Ю 5 н/о н/о +10.0 +3.7 65 +7 +7 1026.9 1013.8
17 18.06 Ю 4 н/о н/о +8.3 +3.0 69 +6 +6 1027.0 1013.9
18 18.06 Ю 4 н/о н/о +8.8 +4.2 73 +6 +6 1026.8 1013.7
20 18.06 Ю 5 н/о н/о +8.1 +4.9 80 +5 +5 1027.6 1014.5
19 18.06 Ю 5 н/о н/о +8.4 +4.2 75 +5 +5 1027.0 1013.9
21 18.06 ЮВ 5 н/о н/о +7.6 +4.9 83 +4 +4 1028.2 1015.1
22 18.06 ЮВ 4 н/о н/о +8.8 +5.7 81 +6 +6 1029.0 1015.9
23 18.06 ЮВ 5 н/о н/о +11.5 +6.4 71 +9 +9 1029.4 1016.3
00 19.06 ЮВ 5 н/о н/о +14.8 +6.9 59 +14 +14 1029.5 1016.4
02 19.06 ЮВ 5 н/о н/о +20.4 +7.1 42 +21 +21 комфорт 1027.8 1014.7 +7.5
01 19.06 ЮВ 4 н/о н/о +18.1 +6.9 48 +18 +18 1028.9 1015.8
03 19.06 В 5 н/о н/о +21.3 +6.4 38 +22 +22 комфорт 1026.9 1013.8
04 19.06 ЮВ 5 н/о н/о +21.6 +5.1 34 +22 +22 комфорт 1026.0 1012.9
05 19.06 ЮВ 5 н/о н/о +22.0 +4.6 32 +22 +22 комфорт 1025.7 1012.6
06 19.06 Ю 5 н/о н/о +21.7 +3.9 31 +22 +22 комфорт 1025.8 1012.7
08 19.06 Ю 3 н/о н/о +17.6 +4.6 42 +18 +18 1026.1 1013.0
07 19.06 ЮВ 4 н/о н/о +20.4 +4.0 34 +21 +21 комфорт 1025.9 1012.8
09 19.06 Ю 3 н/о н/о +15.4 +4.2 47 +15 +15 1026.7 1013.6
10 19.06 ЮВ 3 н/о н/о +14.1 +4.9 54 +13 +13 1027.0 1013.9
11 19.06 ЮВ 3 н/о н/о +13.7 +5.3 57 +13 +13 1027.2 1014.1
12 19.06 Ю 3 н/о н/о +12.1 +5.0 62 +11 +11 1027.1 1014.0
14 19.06 Ю 3 н/о н/о +10.8 +4.7 66 +9 +9 1026.6 1013.5 +22.8
13 19.06 Ю 4 н/о н/о +11.5 +5.2 65 +10 +10 1026.9 1013.8
15 19.06 ЮВ 4 н/о н/о +10.0 +4.8 70 +8 +8 1026.2 1013.1
16 19.06 ЮВ 4 н/о н/о +9.7 +4.5 70 +7 +7 1025.8 1012.7
17 19.06 Ю 4 н/о н/о +8.7 +3.7 71 +6 +6 1025.5 1012.4
18 19.06 Ю 4 н/о н/о +8.3 +3.8 73 +5 +5 1025.5 1012.4
20 19.06 Ю 4 н/о н/о +7.7 +3.7 76 +5 +5 1026.2 1013.1
19 19.06 Ю 4 н/о н/о +7.8 +3.5 74 +5 +5 1025.6 1012.5
21 19.06 Ю 4 н/о н/о +7.5 +3.9 78 +4 +4 1026.9 1013.8
22 19.06 ЮВ 4 н/о н/о +8.3 +4.1 75 +5 +5 1027.1 1014.0
23 19.06 ЮВ 5 н/о н/о +11.5 +5.8 68 +9 +9 1026.7 1013.6
00 20.06 В 4 н/о н/о +16.0 +7.5 57 +15 +15 1026.7 1013.6
02 20.06 В 4 н/о н/о +19.3 +7.1 45 +20 +20 1026.2 1013.1 +7.1
01 20.06 В 4 н/о н/о +18.2 +7.6 50 +18 +18 1026.9 1013.8
03 20.06 В 3 н/о н/о +19.7 +5.4 39 +21 +21 комфорт 1025.1 1012.0
04 20.06 ЮВ 5 н/о н/о +20.7 +5.9 38 +22 +22 комфорт 1024.3 1011.2
05 20.06 С 1 н/о н/о +20.5 +4.5 35 +22 +22 комфорт 1023.8 1010.8
06 20.06 Ю 3 н/о н/о +21.2 +3.9 32 +21 +21 комфорт 1023.8 1010.8
08 20.06 Ю 2 н/о н/о +15.6 +3.1 43 +16 +16 1024.4 1011.3
07 20.06 Ю 2 н/о н/о +20.1 +3.8 34 +21 +21 комфорт 1023.9 1010.9
09 20.06 ЮЗ 2 н/о н/о +12.3 +3.0 53 +12 +12 1025.0 1011.9
10 20.06 ЮВ 3 н/о н/о +10.6 +2.4 57 +9 +9 1025.3 1012.2
11 20.06 ЮВ 2 н/о н/о +9.5 +1.9 59 +8 +8 1025.3 1012.2
12 20.06 Ю 3 н/о н/о +11.7 +4.9 63 +10 +10 1025.5 1012.4
14 20.06 Ю 2 н/о н/о +7.4 +1.3 65 +6 +6 1025.2 1012.1 +21.7
13 20.06 ЮВ 3 н/о н/о +11.1 +4.3 63 +10 +10 1025.3 1012.2
15 20.06 Ю 3 н/о н/о +7.6 +3.5 75 +5 +5 1024.9 1011.8
16 20.06 ЮВ 3 н/о н/о +9.6 +5.2 74 +7 +7 1024.3 1011.2
17 20.06 Ю 3 н/о н/о +8.1 +4.7 79 +6 +6 1024.3 1011.2
18 20.06 Ю 3 н/о н/о +7.7 +4.5 80 +5 +5 1024.7 1011.6
20 20.06 Ю 3 н/о н/о +7.5 +5.1 85 +5 +5 1024.9 1011.8
19 20.06 ЮВ 2 н/о н/о +6.6 +3.8 82 +4 +4 1024.7 1011.6
21 20.06 Ю 3 н/о н/о +6.7 +4.7 87 +4 +4 1025.5 1012.4
22 20.06 Ю 3 н/о н/о +8.2 +5.7 84 +5 +5 1026.1 1013.0
23 20.06 Ю 4 н/о н/о +11.0 +5.5 69 +9 +9 1027.0 1013.9
00 21.06 ЮВ 5 н/о н/о +15.6 +6.9 56 +15 +15 1027.3 1014.2
02 21.06 Ю 4 н/о н/о +18.8 +5.6 42 +19 +19 1026.2 1013.1 +6.6
01 21.06 Ю 4 н/о н/о +17.9 +6.1 46 +18 +18 1027.1 1014.0
03 21.06 Ю 3 н/о н/о +19.9 +4.8 37 +21 +21 комфорт 1025.1 1012.0
04 21.06 ЮВ 3 н/о н/о +20.7 +3.9 33 +22 +22 комфорт 1024.7 1011.6
05 21.06 ЮВ 4 н/о н/о +20.7 +3.4 32 +21 +21 комфорт 1023.9 1010.9
06 21.06 Ю 3 н/о н/о +20.9 +3.2 31 +22 +22 комфорт 1024.0 1011.0
08 21.06 Ю 3 н/о н/о +15.7 +2.2 40 +16 +16 1024.6 1011.5
07 21.06 Ю 3 н/о н/о +19.7 +3.0 33 +20 +20 1024.4 1011.3
09 21.06 Ю 3 н/о н/о +14.8 +2.0 42 +14 +14 1024.7 1011.6
10 21.06 ЮВ 3 н/о н/о +13.2 +1.8 46 +12 +12 1025.5 1012.4
11 21.06 ЮВ 3 н/о н/о +10.7 +1.3 52 +9 +9 1026.2 1013.1
12 21.06 ЮВ 3 н/о н/о +9.3 +1.7 59 +7 +7 1026.1 1013.0
14 21.06 Ю 3 н/о н/о +9.0 +1.9 61 +7 +7 1025.9 1012.8 +21.5
13 21.06 В 3 н/о н/о +9.4 +1.6 58 +8 +8 1026.0 1012.9
15 21.06 ЮВ 3 н/о н/о +7.6 +1.0 63 +5 +5 1025.3 1012.2
16 21.06 ЮВ 2 н/о н/о +5.0 0.0 70 +3 +3 1025.2 1012.1
17 21.06 ЮВ 2 н/о н/о +3.9 +0.6 79 +1 +1 1024.9 1011.8
18 21.06 Ю 2 н/о н/о +2.2 -0.9 80 -1 -1 1024.8 1011.7
20 21.06 Ю 2 н/о н/о +1.2 -0.7 87 -2 -2 1025.6 1012.5
19 21.06 штиль 0 н/о н/о +0.7 -2.3 80 -0 -0 1024.7 1011.6
21 21.06 Ю 3 н/о н/о +3.1 +1.2 87 -1 -1 1025.9 1012.8
22 21.06 ЮВ 3 н/о н/о +4.6 +1.3 79 +1 +1 1026.3 1013.2
23 21.06 ЮВ 2 н/о н/о +8.0 +2.0 66 +6 +6 1026.8 1013.7
00 22.06 СВ 3 н/о н/о +12.8 +3.5 53 +12 +12 1027.0 1013.9
02 22.06 С 2 н/о н/о +18.1 +0.7 31 +19 +19 1025.6 1012.5 +0.5
01 22.06 С 2 н/о н/о +15.6 +16 +16 1026.6 1013.5
03 22.06 З 3 н/о н/о +19.3 +2.2 32 +20 +20 1024.7 1011.6
04 22.06 СЗ 4 н/о н/о +19.9 +1.4 29 +20 +20 1023.7 1010.7
05 22.06 С 2 н/о н/о +20.6 -0.7 24 +21 +21 комфорт 1023.1 1010.1
06 22.06 З 1 н/о н/о +20.2 -1.0 24 +22 +22 комфорт 1022.9 1009.9
08 22.06 Ю 3 н/о н/о +15.9 -0.8 32 +16 +16 1023.1 1010.1
07 22.06 Ю 2 н/о н/о +19.4 -0.1 27 +20 +20 1023.1 1010.1
09 22.06 Ю 3 н/о н/о +12.9 -2.2 35 +12 +12 1023.3 1010.3
10 22.06 Ю 2 н/о н/о +10.6 -2.1 41 +10 +10 1023.5 1010.5
11 22.06 ЮВ 2 н/о н/о +8.6 -1.8 48 +8 +8 1023.5 1010.5
12 22.06 штиль 0 н/о н/о +6.6 -2.8 51 +6 +6 1023.4 1010.4
14 22.06 Ю 2 н/о н/о +5.6 -1.5 60 +4 +4 1022.5 1009.5 +21.4
13 22.06 штиль 0 н/о н/о +5.8 -2.5 55 +5 +5 1023.1 1010.1
15 22.06 ЮВ 2 н/о н/о +4.7 -1.1 66 +2 +2 1021.7 1008.7
16 22.06 В 3 н/о н/о +5.1 -0.5 67 +2 +2 1021.6 1008.6
17 22.06 В 2 н/о н/о +5.7 +0.1 67 +3 +3 1021.3 1008.3
18 22.06 В 2 н/о н/о +4.1 -1.7 66 +2 +2 1021.1 1008.1
20 22.06 ЮВ 2 н/о н/о +3.5 -0.9 73 +1 +1 1021.1 1008.1
19 22.06 В 2 н/о н/о +4.1 -0.3 73 +2 +2 1020.8 1007.8
21 22.06 Ю 2 н/о н/о +3.3 -0.9 74 +1 +1 1021.8 1008.8
22 22.06 Ю 2 н/о н/о +5.8 +0.4 68 +4 +4 1022.0 1009.0
23 22.06 ЮВ 2 н/о н/о +9.9 +1.3 55 +9 +9 1022.2 1009.2
00 23.06 З 1 н/о н/о +14.7 +2.3 43 +15 +15 1022.5 1009.5
02 23.06 СЗ 4 н/о н/о +20.2 +1.6 29 +20 +20 1020.2 1007.2 +3.1
01 23.06 СЗ 3 н/о н/о +18.3 +2.2 34 +19 +19 1021.5 1008.5
03 23.06 З 4 н/о н/о +20.9 +1.7 28 +21 +21 комфорт 1019.5 1006.5
04 23.06 З 4 н/о н/о +22.3 +1.3 25 +22 +22 комфорт 1018.6 1005.6
05 23.06 З 3 н/о н/о +22.2 +1.3 25 +22 +22 комфорт 1018.3 1005.3
06 23.06 ЮЗ 5 н/о н/о +21.1 +1.9 28 +21 +21 комфорт 1018.5 1005.5
08 23.06 ЮЗ 3 н/о н/о +17.5 +1.9 35 +18 +18 1018.9 1005.9
07 23.06 ЮЗ 4 н/о н/о +20.4 +1.8 29 +21 +21 комфорт 1018.5 1005.5
09 23.06 ЮЗ 2 н/о н/о +14.7 +1.9 42 +15 +15 1019.1 1006.1
10 23.06 ЮЗ 2 н/о н/о +12.6 +1.3 46 +12 +12 1019.3 1006.3
11 23.06 ЮЗ 2 н/о н/о +10.3 +1.2 53 +10 +10 1019.7 1006.7
12 23.06 ЮЗ 2 н/о н/о +9.9 +1.5 56 +9 +9 1019.5 1006.5
14 23.06 ЮЗ 2 н/о н/о +7.2 -1.2 55 +6 +6 1019.0 1006.0 +23.0
13 23.06 ЮЗ 2 н/о н/о +8.0 -1.0 53 +6 +6 1019.2 1006.2
15 23.06 ЮЗ 1 н/о н/о +6.7 -1.2 57 +7 +7 1018.6 1005.6
16 23.06 штиль 0 н/о н/о +6.6 -0.4 61 +6 +6 1018.4 1005.4
17 23.06 штиль 0 н/о н/о +5.9 -1.5 59 +5 +5 1018.3 1005.3
18 23.06 СЗ 2 н/о н/о +6.5 +0.2 64 +5 +5 1018.2 1005.2
20 23.06 СЗ 2 н/о н/о +5.7 +0.3 68 +4 +4 1018.5 1005.5
19 23.06 СЗ 2 н/о н/о +5.7 +0.1 67 +3 +3 1017.6 1004.6
21 23.06 З 2 н/о н/о +5.7 -0.6 64 +4 +4 1019.2 1006.2
22 23.06 З 1 н/о н/о +8.1 +1.5 63 +9 +9 1020.1 1007.1
23 23.06 З 2 н/о н/о +13.7 +3.2 49 +14 +14 1020.4 1007.4
00 24.06 С 2 н/о н/о +16.6 +3.0 40 +17 +17 1020.5 1007.5
02 24.06 ЮЗ 2 н/о н/о +20.7 +2.5 30 +22 +22 комфорт 1019.3 1006.3 +5.3
01 24.06 СЗ 2 н/о н/о +19.8 +3.1 33 +21 +21 комфорт 1020.1 1007.1
03 24.06 ЮЗ 4 н/о н/о +21.6 +1.8 27 +21 +21 комфорт 1018.4 1005.4
04 24.06 ЮЗ 4 н/о н/о +21.9 +2.1 27 +22 +22 комфорт 1017.7 1004.7
05 24.06 ЮЗ 4 н/о н/о +21.9 +2.6 28 +22 +22 комфорт 1017.6 1004.6
06 24.06 ЮЗ 4 н/о н/о +21.9 +2.6 28 +22 +22 комфорт 1017.5 1004.5
08 24.06 ЮЗ 2 н/о н/о +16.6 +1.5 36 +17 +17 1018.0 1005.0
07 24.06 ЮЗ 3 н/о н/о +20.7 +2.0 29 +21 +21 комфорт 1017.8 1004.8
09 24.06 штиль 0 н/о н/о +13.5 +0.5 41 +13 +13 1018.2 1005.2
10 24.06 ЮЗ 3 н/о н/о +12.1 +2.0 50 +11 +11 1018.8 1005.8
11 24.06 штиль 0 н/о н/о +11.1 +0.5 48 +11 +11 1018.9 1005.9
12 24.06 штиль 0 н/о н/о +11.4 +1.4 50 +11 +11 1018.8 1005.8

 

Местоположение метеостанции Bourke Airport Aws (Новый Южный Уэльс, Австралия): широта -30.03 долгота 145.95 высота над уровнем моря 108 м.

В архиве по умолчанию представлена погода в Bourke Airport Aws за последнюю неделю. Архивные данные за месяц целиком и за предыдущие месяцы, начиная с января 2011 года, Вы можете получить, выбрав интересующий диапазон дат из раскрывающегося списка и нажав кнопку "Ввод!".

Внимание! Время в таблицах - всемирное. Для получения местного времени необходимо прибавить поправку, которая в Bourke Airport Aws равна 10 ч.

Смотрите также архив погоды в соседних городах и на ближайших метеорологических станциях:

Погода в Cobar Mo (Новый Южный Уэльс, Австралия) (162 км)
Погода в Cobar Airport Aws (Новый Южный Уэльс, Австралия) (167 км)
Погода в Walgett Airport Aws (Новый Южный Уэльс, Австралия) (209 км)
Погода в Coonamble Airport (Новый Южный Уэльс, Австралия) (256 км)
Погода в Trangie Research Stn (Новый Южный Уэльс, Австралия) (289 км)
Погода в White Cliffs Aws (Новый Южный Уэльс, Австралия) (291 км)
Погода в Wilcannia Aerodrome (Новый Южный Уэльс, Австралия) (296 км)
Погода в Thargomindah Airport (Квинсленд, Австралия) (309 км)
Погода в St George Airport (Квинсленд, Австралия) (339 км)
Погода в Dubbo Airport Aws (Новый Южный Уэльс, Австралия) (347 км)

Пояснения к столбцам:

Ветер - указаны скорость ветра в м/с - средняя за 10 мин, порывы в срок и между сроками (в фигурных скобках) и направление, откуда дует ветер: С - северный, СВ - северо-восточный, В - восточный, ЮВ - юго-восточный, Ю - южный, ЮЗ - юго-западный, З - западный, СЗ - северо-западный.
Видимость - горизонтальная дальность видимости в метрах или километрах. При видимости от 1 до 10 км при отсутствии осадков обычно наблюдается дымка, при ухудшении видимости до 1 км и менее - туман. В сухую погоду видимость может ухудшаться дымом, пылью или мглою.
Явления - указаны атмосферные явления, наблюдавшиеся в срок или в последний час перед сроком; фигурными скобками обозначены явления, наблюдавшиеся между сроками (за 1-3 часа до срока); квадратными скобками обозначены град или гололедные отложения с указанием их диаметра в мм.
Облачность - указаны через наклонную черту общая и нижняя облачность в баллах и высота нижней границы облаков в метрах; квадратными скобками обозначены формы облаков: Ci - перистые, Cs - перисто-слоистые, Cc - перисто-кучевые, Ac - высококучевые, As - высокослоистые, Sc - слоисто-кучевые, Ns - слоисто-дождевые, Cu - кучевые, Cb - кучево-дождевые. Подробнее классификацию облаков см. в Атласе облаков (PDF).
T - Температура воздуха - температура, измеренная на высоте 2 м над землей.
Td - Температура точки росы - температура, при понижении до которой содержащийся в воздухе водяной пар достигнет насыщения.
f - Относительная влажность воздуха - влажноcть воздуха, измеренная на высоте 2 м над землей.
Te - Эффективная температура - температура, которую ощущает одетый по сезону человек в тени. Характеристика душности погоды. При расчете учитывается влияние влажности воздуха и скорости ветра на теплоощущения человека.
Tes - Эффективная температура на солнце - температура, которую ощущает человек, с поправкой на солнечный нагрев. Характеристика знойности погоды. Зависит от высоты солнца над горизонтом, облачности и скорости ветра. Ночью, в пасмурную погоду, а также при ветре 12 м/с и более поправка равна нулю.
P - Атмосферное давление - приведенное к уровню моря атмосферное давление.
Po - Атмосферное давление - измеренное на уровне метеостанции атмосферное давление.
Tmin - Минимальная температура - минимум температуры воздуха на высоте 2 м над землей.
Tmax - Максимальная температура - максимум температуры воздуха на высоте 2 м над землей.
R - Количество осадков - Количество выпавших осадков за период времени, мм. При наведении курсора мыши на число - период времени, за который выпало указанное количество осадков.
R24 - Количество осадков - Количество выпавших осадков за 24 часа, мм.
S - Снежный покров - Высота снежного покрова, см. При наведении курсора мыши на число - состояние снежного покрова и степень покрытия местности в баллах.